Find Starlink 1280

NORAD ID: 45388 Int'l Des: 2020-019 Owner: SPXS Country: US Constellation: starlink operational
LEOCIRCULAR

Current View

Loading 3D Globe...

About Starlink 1280

Description loading...

Upcoming Passes

Passes for default location (London). Set your location on the main map for personalized predictions.

Altitude History

Loading altitude history...

Two-Line Element Set

1 45388U 20019AE 26150.97285207 .00098744 00000-0 60168-3 0 9990
2 45388 53.0377 74.9956 0004968 83.6624 276.4961 15.76661214343274
Epoch: May 30, 2026 • Age: 17 hours

Current Status

Altitude 345.6 km
Velocity 7.70 km/s
Sub-Earth Point -18.26°S, 71.7°W
Launch Date Mar 18, 2020
Age 6.2 years
Type internet

Technical Details

Classification Payload
Mass 260.00 kg
Dry Mass 248.00 kg
Total Mass 260.00 kg
Length 0.20 m
Diameter 2.80 m
Span 9.00 m
Shape Box + pan
Manufacturer SPXS
Bus Type Starlink
Phase Status In Orbit
Owner/State SPXS/US

Most Searched